カタログに戻る

THORAD AGENA D DEB

運用中PO
NORAD 4867·DEBRIS·🇺🇸 United States

打ち上げ Apr 8, 1970 から Vandenberg Space Force Base

Loading…

次のパス

TLE

Source: Space-Track
1  4867U 70025EX  26221.82034433  .00000051  00000-0  62336-4 0  9999
2  4867  99.6344 168.5457 0123810 330.0311  29.3804 14.01816997862259

AllMySatでTHORAD AGENA D DEBをリアルタイム追跡

Download on the App Store